^^
Datos históricos de la estación: Murcia-Puente Tocinos
Diario Informe para Febrero 10, 2019 Unidades:  Métrico    Inglés   Ambas
Diario Semanal Mensual Anual Configurable
  Máximo: Mínimo: Media:
Temperatura: 19.7 °C 6.9 °C 13.4 °C
Punto de rocio: 7.7 °C 2.4 °C 4.1 °C
Humedad: 78% 32% 56%
Velocidad viento: 25.1km/h 0.0km/h 9.7km/h
Racha viento: 40.7km/h - -
Viento- - SW
Presión: 1022.4 hPa 1019.5 hPa -
Precipitación: 0.0 mm    
Historical Graphs
 
 
Tabla de datos para Febrero 10, 2019
Hora Temperatura Punto de rocio Presión Viento Velocidad viento Racha viento Humedad Intensidad lluvia(por hora) Nubes
00:00 11.4 °C 7.6 °C 1020.7 hPa SSW 4.8 km/h 9.7 km/h 77% 0.0 mm CLR
00:05 11.5 °C 7.6 °C 1020.5 hPa SSW 5.0 km/h 5.6 km/h 77% 0.0 mm CLR
00:10 11.5 °C 7.6 °C 1020.5 hPa SSW 3.2 km/h 5.6 km/h 77% 0.0 mm CLR
00:15 11.6 °C 7.7 °C 1020.5 hPa SSW 3.2 km/h 5.6 km/h 77% 0.0 mm CLR
00:20 11.5 °C 7.6 °C 1020.5 hPa SSW 3.9 km/h 7.4 km/h 77% 0.0 mm CLR
00:25 11.4 °C 7.3 °C 1020.5 hPa SSW 3.9 km/h 1.9 km/h 76% 0.0 mm CLR
00:30 11.3 °C 7.4 °C 1020.5 hPa SSW 2.9 km/h 4.7 km/h 77% 0.0 mm CLR
00:35 11.2 °C 7.3 °C 1020.6 hPa SE 2.9 km/h 7.4 km/h 77% 0.0 mm CLR
00:40 11.1 °C 7.2 °C 1020.6 hPa SSE 5.0 km/h 7.4 km/h 77% 0.0 mm CLR
00:45 10.9 °C 7.0 °C 1020.6 hPa SSE 5.0 km/h 9.5 km/h 77% 0.0 mm CLR
00:50 10.8 °C 6.9 °C 1020.5 hPa South 6.9 km/h 9.3 km/h 77% 0.0 mm CLR
00:55 10.6 °C 6.7 °C 1020.5 hPa South 6.9 km/h 10.0 km/h 77% 0.0 mm CLR
01:00 10.6 °C 6.7 °C 1020.5 hPa South 8.0 km/h 11.3 km/h 77% 0.0 mm CLR
01:04 10.6 °C 6.7 °C 1020.5 hPa SSE 6.9 km/h 11.1 km/h 77% 0.0 mm CLR
01:09 10.6 °C 6.6 °C 1020.5 hPa South 7.6 km/h 11.1 km/h 76% 0.0 mm CLR
01:14 10.6 °C 6.6 °C 1020.5 hPa South 7.6 km/h 11.1 km/h 76% 0.0 mm CLR
01:19 10.6 °C 6.3 °C 1020.5 hPa South 8.4 km/h 11.1 km/h 75% 0.0 mm CLR
01:24 10.5 °C 6.3 °C 1020.5 hPa SW 8.4 km/h 9.3 km/h 75% 0.0 mm CLR
01:29 10.6 °C 6.3 °C 1020.5 hPa SW 6.9 km/h 9.3 km/h 75% 0.0 mm CLR
01:34 10.6 °C 6.2 °C 1020.4 hPa South 6.9 km/h 7.4 km/h 74% 0.0 mm CLR
01:39 10.6 °C 5.9 °C 1020.4 hPa South 5.8 km/h 9.3 km/h 73% 0.0 mm CLR
01:44 10.6 °C 5.9 °C 1020.4 hPa SSW 5.8 km/h 11.1 km/h 73% 0.0 mm CLR
01:49 10.6 °C 5.8 °C 1020.2 hPa SSW 6.9 km/h 11.1 km/h 72% 0.0 mm CLR
01:54 10.7 °C 5.8 °C 1020.2 hPa SW 6.9 km/h 9.3 km/h 72% 0.0 mm CLR
01:59 10.7 °C 5.8 °C 1020.2 hPa SW 7.6 km/h 9.3 km/h 72% 0.0 mm CLR
02:04 10.7 °C 5.8 °C 1020.4 hPa SW 7.6 km/h 8.7 km/h 72% 0.0 mm CLR
02:09 10.7 °C 5.8 °C 1020.4 hPa SSW 6.9 km/h 9.3 km/h 72% 0.0 mm CLR
02:14 10.7 °C 5.8 °C 1020.4 hPa SSW 6.9 km/h 7.4 km/h 72% 0.0 mm CLR
02:19 10.6 °C 5.8 °C 1020.3 hPa SW 5.8 km/h 9.5 km/h 72% 0.0 mm CLR
02:24 10.5 °C 5.7 °C 1020.3 hPa WSW 5.8 km/h 11.1 km/h 72% 0.0 mm CLR
02:29 10.4 °C 5.8 °C 1020.3 hPa SW 7.6 km/h 16.7 km/h 73% 0.0 mm CLR
02:34 10.3 °C 5.4 °C 1020.4 hPa SW 7.6 km/h 11.1 km/h 72% 0.0 mm CLR
02:39 10.3 °C 5.4 °C 1020.4 hPa SSW 9.5 km/h 11.1 km/h 72% 0.0 mm CLR
02:44 10.2 °C 5.4 °C 1020.4 hPa SW 9.5 km/h 9.3 km/h 72% 0.0 mm CLR
02:49 10.2 °C 5.2 °C 1020.4 hPa SSW 6.9 km/h 9.3 km/h 71% 0.0 mm CLR
02:54 10.2 °C 5.2 °C 1020.4 hPa South 6.9 km/h 11.1 km/h 71% 0.0 mm CLR
02:59 9.9 °C 5.1 °C 1020.4 hPa South 6.9 km/h 13.0 km/h 72% 0.0 mm CLR
03:04 9.6 °C 5.0 °C 1020.3 hPa South 6.9 km/h 13.0 km/h 73% 0.0 mm CLR
03:09 9.4 °C 4.8 °C 1020.3 hPa SSE 10.0 km/h 13.0 km/h 73% 0.0 mm CLR
03:14 9.3 °C 4.9 °C 1020.3 hPa SW 10.0 km/h 11.1 km/h 74% 0.0 mm CLR
03:19 9.2 °C 4.8 °C 1020.0 hPa SSW 7.6 km/h 7.4 km/h 74% 0.0 mm CLR
03:24 9.2 °C 4.8 °C 1020.0 hPa SSW 7.6 km/h 7.4 km/h 74% 0.0 mm CLR
03:29 9.2 °C 4.8 °C 1020.0 hPa SW 5.0 km/h 5.6 km/h 74% 0.0 mm CLR
03:34 9.2 °C 4.6 °C 1019.9 hPa SW 5.0 km/h 6.4 km/h 73% 0.0 mm CLR
03:39 9.2 °C 4.6 °C 1019.9 hPa SW 3.2 km/h 5.6 km/h 73% 0.0 mm CLR
03:44 9.2 °C 4.6 °C 1019.9 hPa SW 3.2 km/h 3.7 km/h 73% 0.0 mm CLR
03:49 9.2 °C 4.6 °C 1019.8 hPa SW 2.3 km/h 3.2 km/h 73% 0.0 mm CLR
03:54 9.1 °C 4.5 °C 1019.8 hPa West 2.3 km/h 5.6 km/h 73% 0.0 mm CLR
03:59 9.0 °C 4.6 °C 1019.8 hPa WNW 2.9 km/h 5.6 km/h 74% 0.0 mm CLR
04:04 8.8 °C 4.4 °C 1019.8 hPa WNW 2.9 km/h 5.6 km/h 74% 0.0 mm CLR
04:09 8.7 °C 4.5 °C 1019.8 hPa WNW 3.2 km/h 3.7 km/h 75% 0.0 mm CLR
04:14 8.6 °C 4.6 °C 1019.8 hPa WNW 3.2 km/h 5.6 km/h 76% 0.0 mm CLR
04:19 8.5 °C 4.5 °C 1019.5 hPa WNW 2.3 km/h 3.9 km/h 76% 0.0 mm CLR
04:24 8.5 °C 4.5 °C 1019.5 hPa WNW 2.3 km/h 4.7 km/h 76% 0.0 mm CLR
04:29 8.4 °C 4.6 °C 1019.5 hPa West 2.9 km/h 7.4 km/h 77% 0.0 mm CLR
04:34 8.3 °C 4.5 °C 1019.5 hPa SE 2.9 km/h 7.4 km/h 77% 0.0 mm CLR
04:39 8.2 °C 4.2 °C 1019.5 hPa SSW 6.4 km/h 9.3 km/h 76% 0.0 mm CLR
04:44 8.1 °C 4.1 °C 1019.5 hPa SSE 6.4 km/h 11.1 km/h 76% 0.0 mm CLR
04:49 7.8 °C 4.0 °C 1019.6 hPa South 7.6 km/h 11.1 km/h 77% 0.0 mm CLR
04:54 7.8 °C 4.0 °C 1019.6 hPa SE 7.6 km/h 9.3 km/h 77% 0.0 mm CLR
04:59 7.7 °C 3.9 °C 1019.6 hPa SSE 7.6 km/h 11.1 km/h 77% 0.0 mm CLR
05:04 7.5 °C 3.7 °C 1019.5 hPa SSE 7.6 km/h 13.0 km/h 77% 0.0 mm CLR
05:09 7.3 °C 3.7 °C 1019.5 hPa South 8.4 km/h 11.9 km/h 78% 0.0 mm CLR
05:14 7.4 °C 3.6 °C 1019.5 hPa South 8.4 km/h 9.3 km/h 77% 0.0 mm CLR
05:19 7.4 °C 3.6 °C 1019.5 hPa South 8.4 km/h 13.0 km/h 77% 0.0 mm CLR
05:24 7.6 °C 3.8 °C 1019.5 hPa South 8.4 km/h 9.5 km/h 77% 0.0 mm CLR
05:29 7.7 °C 3.7 °C 1019.5 hPa SSW 8.4 km/h 9.3 km/h 76% 0.0 mm CLR
05:34 7.9 °C 3.7 °C 1019.5 hPa SW 8.4 km/h 9.3 km/h 75% 0.0 mm CLR
05:39 8.0 °C 3.8 °C 1019.5 hPa SW 6.4 km/h 7.4 km/h 75% 0.0 mm CLR
05:44 8.1 °C 3.7 °C 1019.5 hPa West 6.4 km/h 7.6 km/h 74% 0.0 mm CLR
05:49 8.2 °C 3.8 °C 1019.6 hPa West 5.0 km/h 3.7 km/h 74% 0.0 mm CLR
05:54 8.2 °C 3.7 °C 1019.6 hPa West 5.0 km/h 5.6 km/h 73% 0.0 mm CLR
05:59 8.2 °C 3.7 °C 1019.6 hPa SE 2.9 km/h 8.4 km/h 73% 0.0 mm CLR
06:04 7.9 °C 3.6 °C 1019.5 hPa SSE 2.9 km/h 9.3 km/h 74% 0.0 mm CLR
06:09 7.6 °C 3.4 °C 1019.5 hPa SSE 5.8 km/h 7.4 km/h 75% 0.0 mm CLR
06:14 7.3 °C 3.3 °C 1019.5 hPa South 5.8 km/h 9.3 km/h 76% 0.0 mm CLR
06:19 7.2 °C 3.4 °C 1019.7 hPa SSW 5.8 km/h 7.4 km/h 77% 0.0 mm CLR
06:24 7.1 °C 3.5 °C 1019.7 hPa SSW 5.8 km/h 7.4 km/h 78% 0.0 mm CLR
06:29 7.1 °C 3.5 °C 1019.7 hPa SSW 5.8 km/h 5.6 km/h 78% 0.0 mm CLR
06:34 7.2 °C 3.4 °C 1019.8 hPa SSW 5.8 km/h 7.4 km/h 77% 0.0 mm CLR
06:39 7.3 °C 3.6 °C 1019.8 hPa South 5.8 km/h 9.5 km/h 77% 0.0 mm CLR
06:44 7.3 °C 3.3 °C 1019.8 hPa South 5.8 km/h 10.3 km/h 76% 0.0 mm CLR
06:49 7.3 °C 3.6 °C 1020.0 hPa SSE 6.9 km/h 9.3 km/h 77% 0.0 mm CLR
06:54 7.1 °C 3.3 °C 1020.0 hPa South 6.9 km/h 11.1 km/h 77% 0.0 mm CLR
06:59 6.9 °C 3.2 °C 1020.0 hPa SSW 7.6 km/h 10.3 km/h 77% 0.0 mm CLR
07:04 6.9 °C 3.2 °C 1020.0 hPa SSW 7.6 km/h 10.3 km/h 77% 0.0 mm CLR
07:09 7.0 °C 3.2 °C 1020.0 hPa South 7.6 km/h 9.3 km/h 77% 0.0 mm CLR
07:14 7.0 °C 3.2 °C 1020.0 hPa SSE 7.6 km/h 11.1 km/h 77% 0.0 mm CLR
07:19 7.1 °C 3.3 °C 1020.0 hPa South 8.4 km/h 11.1 km/h 77% 0.0 mm CLR
07:24 7.1 °C 3.2 °C 1020.0 hPa SSW 8.4 km/h 11.1 km/h 76% 0.0 mm CLR
07:29 7.1 °C 3.2 °C 1020.0 hPa SSW 8.7 km/h 13.0 km/h 76% 0.0 mm CLR
07:34 7.2 °C 3.1 °C 1020.2 hPa SW 8.7 km/h 11.1 km/h 75% 0.0 mm CLR
07:39 7.3 °C 3.2 °C 1020.2 hPa WSW 7.6 km/h 11.1 km/h 75% 0.0 mm CLR
07:44 7.3 °C 2.9 °C 1020.2 hPa SSW 7.6 km/h 8.7 km/h 74% 0.0 mm CLR
07:49 7.4 °C 3.1 °C 1020.3 hPa SW 6.4 km/h 7.4 km/h 74% 0.0 mm CLR
07:54 7.5 °C 2.9 °C 1020.3 hPa SW 6.4 km/h 5.6 km/h 73% 0.0 mm CLR
07:59 7.6 °C 3.1 °C 1020.3 hPa WSW 4.7 km/h 5.6 km/h 73% 0.0 mm CLR
08:04 7.6 °C 3.1 °C 1020.4 hPa WSW 4.7 km/h 7.4 km/h 73% 0.0 mm CLR
08:09 7.6 °C 3.1 °C 1020.4 hPa WSW 5.0 km/h 5.6 km/h 73% 0.0 mm CLR
08:14 7.6 °C 2.9 °C 1020.4 hPa South 5.0 km/h 11.1 km/h 72% 0.0 mm CLR
08:19 7.7 °C 2.9 °C 1020.5 hPa South 5.8 km/h 7.4 km/h 72% 0.0 mm CLR
08:24 7.8 °C 3.1 °C 1020.5 hPa SSE 5.8 km/h 9.3 km/h 72% 0.0 mm CLR
08:29 7.8 °C 2.9 °C 1020.5 hPa SSE 6.4 km/h 13.0 km/h 71% 0.0 mm CLR
08:34 7.8 °C 3.1 °C 1020.9 hPa SSE 6.4 km/h 11.9 km/h 72% 0.0 mm CLR
08:39 7.7 °C 2.9 °C 1020.9 hPa SSE 8.4 km/h 14.8 km/h 72% 0.0 mm CLR
08:44 7.4 °C 2.9 °C 1020.9 hPa South 8.4 km/h 14.8 km/h 73% 0.0 mm CLR
08:49 7.4 °C 2.7 °C 1020.9 hPa South 11.9 km/h 18.5 km/h 72% 0.0 mm CLR
08:54 7.7 °C 2.9 °C 1020.9 hPa South 11.9 km/h 14.8 km/h 72% 0.0 mm CLR
08:59 7.9 °C 2.9 °C 1020.9 hPa SSW 10.3 km/h 13.0 km/h 71% 0.0 mm CLR
09:04 8.1 °C 2.8 °C 1021.1 hPa SSW 10.3 km/h 14.8 km/h 69% 0.0 mm CLR
09:09 8.4 °C 2.8 °C 1021.1 hPa SW 8.7 km/h 11.1 km/h 68% 0.0 mm CLR
09:14 8.7 °C 2.9 °C 1021.1 hPa SSW 8.7 km/h 11.1 km/h 67% 0.0 mm CLR
09:19 9.0 °C 3.0 °C 1021.2 hPa WSW 8.4 km/h 13.0 km/h 66% 0.0 mm CLR
09:24 9.3 °C 2.8 °C 1021.2 hPa SSW 8.4 km/h 13.0 km/h 64% 0.0 mm CLR
09:29 9.6 °C 2.9 °C 1021.2 hPa WNW 8.4 km/h 11.1 km/h 63% 0.0 mm CLR
09:35 9.7 °C 2.8 °C 1021.3 hPa West 8.4 km/h 9.5 km/h 62% 0.0 mm CLR
09:39 9.8 °C 2.6 °C 1021.3 hPa West 7.6 km/h 13.0 km/h 61% 0.0 mm CLR
09:44 9.9 °C 2.7 °C 1021.3 hPa SW 7.6 km/h 14.0 km/h 61% 0.0 mm CLR
09:49 10.1 °C 2.9 °C 1021.4 hPa SSW 8.4 km/h 11.1 km/h 61% 0.0 mm CLR
09:54 10.3 °C 2.9 °C 1021.4 hPa SSW 8.4 km/h 9.3 km/h 60% 0.0 mm CLR
10:00 10.6 °C 3.2 °C 1021.4 hPa SW 8.0 km/h 9.7 km/h 60% 0.0 mm CLR
10:04 11.1 °C 3.2 °C 1021.5 hPa SW 7.6 km/h 11.1 km/h 58% 0.0 mm CLR
10:09 11.5 °C 3.3 °C 1021.5 hPa SW 6.4 km/h 11.1 km/h 57% 0.0 mm CLR
10:14 11.9 °C 3.4 °C 1021.5 hPa West 6.4 km/h 9.3 km/h 56% 0.0 mm CLR
10:19 12.2 °C 3.2 °C 1021.6 hPa West 6.4 km/h 9.3 km/h 54% 0.0 mm CLR
10:24 12.6 °C 3.3 °C 1021.6 hPa WSW 6.4 km/h 9.3 km/h 53% 0.0 mm CLR
10:29 12.8 °C 2.9 °C 1021.6 hPa SW 6.4 km/h 11.1 km/h 51% 0.0 mm CLR
10:35 13.1 °C 3.1 °C 1021.6 hPa WSW 8.0 km/h 14.5 km/h 51% 0.0 mm CLR
10:39 13.2 °C 3.0 °C 1021.6 hPa West 8.4 km/h 11.1 km/h 50% 0.0 mm CLR
10:45 13.3 °C 2.8 °C 1021.6 hPa SW 8.0 km/h 14.5 km/h 49% 0.0 mm CLR
10:49 13.5 °C 3.0 °C 1021.7 hPa SW 8.7 km/h 7.4 km/h 49% 0.0 mm CLR
10:55 13.7 °C 2.6 °C 1021.7 hPa SSW 9.7 km/h 16.1 km/h 47% 0.0 mm CLR
10:59 13.9 °C 2.8 °C 1021.7 hPa SW 8.7 km/h 11.1 km/h 47% 0.0 mm CLR
11:04 14.2 °C 3.1 °C 1021.7 hPa South 8.7 km/h 13.0 km/h 47% 0.0 mm CLR
11:09 14.4 °C 2.9 °C 1021.7 hPa SSE 8.4 km/h 14.8 km/h 46% 0.0 mm CLR
11:14 14.7 °C 3.2 °C 1021.7 hPa WSW 8.4 km/h 11.1 km/h 46% 0.0 mm CLR
11:19 14.9 °C 3.4 °C 1021.8 hPa SSW 6.9 km/h 9.3 km/h 46% 0.0 mm CLR
11:25 15.1 °C 3.2 °C 1021.8 hPa SW 8.0 km/h 11.3 km/h 45% 0.0 mm CLR
11:29 15.1 °C 3.2 °C 1021.8 hPa SW 5.8 km/h 11.1 km/h 45% 0.0 mm CLR
11:34 15.2 °C 3.3 °C 1021.9 hPa SW 5.8 km/h 11.1 km/h 45% 0.0 mm CLR
11:39 15.3 °C 3.4 °C 1021.9 hPa SW 6.4 km/h 7.4 km/h 45% 0.0 mm CLR
11:45 15.4 °C 3.2 °C 1021.9 hPa WSW 8.0 km/h 9.7 km/h 44% 0.0 mm CLR
11:49 15.6 °C 3.4 °C 1021.8 hPa NW 5.8 km/h 13.0 km/h 44% 0.0 mm CLR
11:55 15.8 °C 3.2 °C 1021.8 hPa West 4.8 km/h 20.9 km/h 43% 0.0 mm CLR
11:59 16.2 °C 3.6 °C 1021.8 hPa WSW 8.4 km/h 16.7 km/h 43% 0.0 mm CLR
12:04 16.3 °C 3.7 °C 1021.6 hPa SW 8.4 km/h 12.2 km/h 43% 0.0 mm CLR
12:09 16.6 °C 3.6 °C 1021.6 hPa SSW 8.7 km/h 20.4 km/h 42% 0.0 mm CLR
12:14 16.8 °C 3.8 °C 1021.6 hPa West 8.7 km/h 20.9 km/h 42% 0.0 mm CLR
12:19 17.3 °C 3.2 °C 1021.5 hPa West 11.1 km/h 25.9 km/h 39% 0.0 mm CLR
12:24 17.4 °C 3.3 °C 1021.5 hPa NW 11.1 km/h 25.9 km/h 39% 0.0 mm CLR
12:29 17.8 °C 3.7 °C 1021.5 hPa WSW 18.0 km/h 27.8 km/h 39% 0.0 mm CLR
12:34 17.9 °C 3.4 °C 1021.5 hPa West 18.0 km/h 24.1 km/h 38% 0.0 mm CLR
12:39 18.2 °C 3.6 °C 1021.5 hPa West 16.1 km/h 25.9 km/h 38% 0.0 mm CLR
12:45 18.2 °C 3.3 °C 1021.5 hPa West 16.1 km/h 30.6 km/h 37% 0.0 mm CLR
12:49 18.4 °C 3.4 °C 1021.4 hPa West 17.2 km/h 32.3 km/h 37% 0.0 mm CLR
12:55 18.6 °C 3.2 °C 1021.4 hPa West 16.1 km/h 37.0 km/h 36% 0.0 mm CLR
12:59 18.3 °C 2.9 °C 1021.4 hPa WNW 19.8 km/h 31.5 km/h 36% 0.0 mm CLR
13:04 18.2 °C 2.9 °C 1021.1 hPa West 19.8 km/h 29.6 km/h 36% 0.0 mm CLR
13:09 18.1 °C 2.8 °C 1021.1 hPa WNW 20.9 km/h 30.9 km/h 36% 0.0 mm CLR
13:14 18.1 °C 3.2 °C 1021.1 hPa WNW 20.9 km/h 25.9 km/h 37% 0.0 mm CLR
13:19 18.2 °C 2.9 °C 1021.0 hPa WNW 18.0 km/h 20.9 km/h 36% 0.0 mm CLR
13:25 18.3 °C 3.0 °C 1021.0 hPa WNW 19.3 km/h 29.0 km/h 36% 0.0 mm CLR
13:30 18.6 °C 3.2 °C 1021.0 hPa West 12.9 km/h 30.6 km/h 36% 0.0 mm CLR
13:34 18.7 °C 2.9 °C 1020.7 hPa WNW 13.7 km/h 22.2 km/h 35% 0.0 mm CLR
13:39 18.6 °C 3.2 °C 1020.7 hPa West 17.2 km/h 27.8 km/h 36% 0.0 mm CLR
13:44 18.9 °C 3.1 °C 1020.7 hPa WSW 17.2 km/h 24.1 km/h 35% 0.0 mm CLR
13:49 19.2 °C 2.9 °C 1020.6 hPa NW 14.8 km/h 37.0 km/h 34% 0.0 mm CLR
13:55 19.2 °C 3.4 °C 1020.6 hPa WNW 14.5 km/h 37.0 km/h 35% 0.0 mm CLR
14:00 19.2 °C 3.3 °C 1020.6 hPa WNW 19.3 km/h 29.0 km/h 35% 0.0 mm CLR
14:04 19.1 °C 3.3 °C 1020.6 hPa West 18.3 km/h 18.5 km/h 35% 0.0 mm CLR
14:09 19.2 °C 2.9 °C 1020.6 hPa WSW 13.7 km/h 22.0 km/h 34% 0.0 mm CLR
14:15 19.2 °C 2.5 °C 1020.6 hPa WNW 12.9 km/h 29.0 km/h 33% 0.0 mm CLR
14:19 19.3 °C 2.6 °C 1020.2 hPa West 14.8 km/h 28.2 km/h 33% 0.0 mm CLR
14:24 19.4 °C 2.7 °C 1020.2 hPa West 14.8 km/h 29.6 km/h 33% 0.0 mm CLR
14:29 19.6 °C 2.9 °C 1020.2 hPa NW 17.2 km/h 24.1 km/h 33% 0.0 mm CLR
14:35 19.6 °C 2.9 °C 1020.0 hPa West 16.1 km/h 24.1 km/h 33% 0.0 mm CLR
14:39 19.6 °C 2.4 °C 1020.0 hPa West 13.0 km/h 18.5 km/h 32% 0.0 mm CLR
14:45 19.6 °C 2.4 °C 1020.0 hPa West 12.9 km/h 22.5 km/h 32% 0.0 mm CLR
14:49 19.7 °C 2.9 °C 1019.9 hPa WNW 14.8 km/h 15.6 km/h 33% 0.0 mm CLR
14:55 19.7 °C 3.4 °C 1019.9 hPa WNW 14.5 km/h 32.2 km/h 34% 0.0 mm CLR
14:59 19.3 °C 3.4 °C 1019.9 hPa NW 16.1 km/h 33.3 km/h 35% 0.0 mm CLR
15:04 19.2 °C 3.8 °C 1019.8 hPa WNW 16.1 km/h 25.9 km/h 36% 0.0 mm CLR
15:09 19.1 °C 3.7 °C 1019.8 hPa NW 20.1 km/h 35.2 km/h 36% 0.0 mm CLR
15:15 18.9 °C 3.5 °C 1019.8 hPa NW 20.9 km/h 37.0 km/h 36% 0.0 mm CLR
15:19 18.9 °C 3.9 °C 1019.9 hPa NW 25.1 km/h 28.2 km/h 37% 0.0 mm CLR
15:24 19.1 °C 4.1 °C 1019.9 hPa West 25.1 km/h 31.5 km/h 37% 0.0 mm CLR
15:30 19.1 °C 4.1 °C 1019.9 hPa WNW 22.5 km/h 29.0 km/h 37% 0.0 mm CLR
15:35 19.1 °C 4.1 °C 1019.7 hPa WNW 22.5 km/h 37.0 km/h 37% 0.0 mm CLR
15:39 19.0 °C 4.3 °C 1019.7 hPa NNW 21.7 km/h 29.6 km/h 38% 0.0 mm CLR
15:44 18.9 °C 4.3 °C 1019.7 hPa NNW 21.7 km/h 31.5 km/h 38% 0.0 mm CLR
15:49 18.8 °C 4.2 °C 1019.9 hPa NW 20.1 km/h 29.6 km/h 38% 0.0 mm CLR
15:55 18.7 °C 4.1 °C 1019.9 hPa NW 20.9 km/h 33.8 km/h 38% 0.0 mm CLR
16:00 18.7 °C 4.4 °C 1019.9 hPa WNW 19.3 km/h 35.4 km/h 39% 0.0 mm CLR
16:05 18.6 °C 4.4 °C 1019.8 hPa WNW 19.0 km/h 38.9 km/h 39% 0.0 mm CLR
16:09 18.6 °C 4.4 °C 1019.8 hPa WNW 20.1 km/h 34.6 km/h 39% 0.0 mm CLR
16:15 18.4 °C 4.2 °C 1019.8 hPa WNW 20.9 km/h 37.0 km/h 39% 0.0 mm CLR
16:19 18.5 °C 4.6 °C 1020.1 hPa WNW 21.7 km/h 40.7 km/h 40% 0.0 mm CLR
16:25 18.6 °C 4.7 °C 1020.1 hPa West 21.7 km/h 29.6 km/h 40% 0.0 mm CLR
16:29 18.7 °C 4.4 °C 1020.1 hPa WNW 21.7 km/h 31.5 km/h 39% 0.0 mm CLR
16:34 18.8 °C 4.6 °C 1020.1 hPa NW 21.7 km/h 27.8 km/h 39% 0.0 mm CLR
16:39 18.8 °C 4.2 °C 1020.1 hPa NW 20.1 km/h 35.2 km/h 38% 0.0 mm CLR
16:45 18.7 °C 4.4 °C 1020.1 hPa NNW 20.1 km/h 29.6 km/h 39% 0.0 mm CLR
16:50 18.6 °C 4.4 °C 1020.1 hPa NW 22.5 km/h 30.6 km/h 39% 0.0 mm CLR
16:55 18.7 °C 4.4 °C 1020.1 hPa WNW 22.5 km/h 32.2 km/h 39% 0.0 mm CLR
16:59 18.4 °C 4.6 °C 1020.1 hPa WNW 19.0 km/h 31.5 km/h 40% 0.0 mm CLR
17:05 18.3 °C 4.4 °C 1020.2 hPa WNW 19.3 km/h 35.4 km/h 40% 0.0 mm CLR
17:09 18.2 °C 4.7 °C 1020.2 hPa WNW 20.9 km/h 18.5 km/h 41% 0.0 mm CLR
17:14 18.3 °C 4.8 °C 1020.2 hPa WNW 20.9 km/h 18.5 km/h 41% 0.0 mm CLR
17:19 18.3 °C 4.8 °C 1020.3 hPa NW 14.8 km/h 29.6 km/h 41% 0.0 mm CLR
17:25 18.3 °C 4.8 °C 1020.3 hPa West 14.8 km/h 25.9 km/h 41% 0.0 mm CLR
17:29 18.3 °C 4.8 °C 1020.3 hPa NNW 17.2 km/h 27.8 km/h 41% 0.0 mm CLR
17:35 18.2 °C 4.7 °C 1020.3 hPa WNW 17.2 km/h 25.9 km/h 41% 0.0 mm CLR
17:40 18.2 °C 4.7 °C 1020.3 hPa WNW 16.1 km/h 32.2 km/h 41% 0.0 mm CLR
17:45 18.1 °C 4.6 °C 1020.3 hPa WNW 16.1 km/h 33.8 km/h 41% 0.0 mm CLR
17:49 18.0 °C 4.6 °C 1020.3 hPa WNW 16.4 km/h 25.1 km/h 41% 0.0 mm CLR
17:55 17.9 °C 4.4 °C 1020.3 hPa WNW 16.1 km/h 38.6 km/h 41% 0.0 mm CLR
17:59 17.7 °C 4.6 °C 1020.3 hPa WNW 19.8 km/h 18.5 km/h 42% 0.0 mm CLR
18:04 17.7 °C 4.6 °C 1020.5 hPa NW 19.8 km/h 31.5 km/h 42% 0.0 mm CLR
18:10 17.6 °C 4.6 °C 1020.5 hPa WNW 16.1 km/h 29.0 km/h 42% 0.0 mm CLR
18:14 17.5 °C 4.4 °C 1020.5 hPa WNW 17.2 km/h 29.6 km/h 42% 0.0 mm CLR
18:19 17.4 °C 4.3 °C 1020.5 hPa WNW 16.1 km/h 20.4 km/h 42% 0.0 mm CLR
18:25 17.4 °C 4.3 °C 1020.5 hPa West 16.1 km/h 20.9 km/h 42% 0.0 mm CLR
18:29 17.4 °C 4.0 °C 1020.5 hPa West 11.9 km/h 16.1 km/h 41% 0.0 mm CLR
18:35 17.4 °C 4.0 °C 1020.6 hPa West 11.3 km/h 20.9 km/h 41% 0.0 mm CLR
18:39 17.3 °C 3.9 °C 1020.6 hPa WSW 13.0 km/h 20.4 km/h 41% 0.0 mm CLR
18:45 17.2 °C 4.2 °C 1020.6 hPa West 12.9 km/h 19.3 km/h 42% 0.0 mm CLR
18:50 17.2 °C 4.1 °C 1020.7 hPa West 11.3 km/h 19.3 km/h 42% 0.0 mm CLR
18:55 17.0 °C 4.0 °C 1020.7 hPa WNW 10.3 km/h 13.0 km/h 42% 0.0 mm CLR
18:59 16.9 °C 4.2 °C 1020.7 hPa WNW 8.7 km/h 20.4 km/h 43% 0.0 mm CLR
19:05 16.8 °C 4.2 °C 1020.9 hPa West 9.7 km/h 16.1 km/h 43% 0.0 mm CLR
19:10 16.8 °C 4.2 °C 1020.9 hPa West 9.7 km/h 20.9 km/h 43% 0.0 mm CLR
19:15 16.7 °C 4.1 °C 1020.9 hPa West 9.7 km/h 20.9 km/h 43% 0.0 mm CLR
19:20 16.7 °C 4.1 °C 1020.9 hPa WNW 9.5 km/h 7.4 km/h 43% 0.0 mm CLR
19:25 16.7 °C 4.1 °C 1020.9 hPa WNW 9.7 km/h 12.9 km/h 43% 0.0 mm CLR
19:29 16.6 °C 4.3 °C 1020.9 hPa North 6.4 km/h 11.1 km/h 44% 0.0 mm CLR
19:35 16.6 °C 4.3 °C 1021.1 hPa West 6.4 km/h 14.8 km/h 44% 0.0 mm CLR
19:40 16.7 °C 4.4 °C 1021.1 hPa WNW 11.3 km/h 27.4 km/h 44% 0.0 mm CLR
19:45 16.7 °C 4.4 °C 1021.1 hPa WNW 10.3 km/h 18.5 km/h 44% 0.0 mm CLR
19:50 16.7 °C 4.4 °C 1021.1 hPa West 14.5 km/h 24.1 km/h 44% 0.0 mm CLR
19:55 16.7 °C 4.4 °C 1021.1 hPa West 14.5 km/h 25.7 km/h 44% 0.0 mm CLR
20:00 16.7 °C 4.4 °C 1021.1 hPa West 11.3 km/h 20.9 km/h 44% 0.0 mm CLR
20:05 16.6 °C 4.3 °C 1021.3 hPa West 11.3 km/h 20.9 km/h 44% 0.0 mm CLR
20:09 16.5 °C 4.2 °C 1021.3 hPa WNW 9.5 km/h 13.0 km/h 44% 0.0 mm CLR
20:15 16.4 °C 4.1 °C 1021.3 hPa West 9.7 km/h 14.5 km/h 44% 0.0 mm CLR
20:19 16.3 °C 4.3 °C 1021.5 hPa WSW 7.6 km/h 15.6 km/h 45% 0.0 mm CLR
20:25 16.4 °C 4.4 °C 1021.5 hPa West 8.0 km/h 19.3 km/h 45% 0.0 mm CLR
20:29 16.4 °C 4.4 °C 1021.5 hPa SW 8.7 km/h 14.8 km/h 45% 0.0 mm CLR
20:35 16.4 °C 4.4 °C 1021.4 hPa West 8.7 km/h 18.5 km/h 45% 0.0 mm CLR
20:40 16.4 °C 4.5 °C 1021.4 hPa WSW 11.3 km/h 22.5 km/h 45% 0.0 mm CLR
20:45 16.6 °C 4.6 °C 1021.4 hPa WSW 11.3 km/h 27.4 km/h 45% 0.0 mm CLR
20:50 16.6 °C 4.6 °C 1021.6 hPa WSW 12.9 km/h 22.5 km/h 45% 0.0 mm CLR
20:55 16.6 °C 4.6 °C 1021.6 hPa WSW 12.9 km/h 20.9 km/h 45% 0.0 mm CLR
20:59 16.4 °C 4.4 °C 1021.6 hPa WSW 8.7 km/h 5.8 km/h 45% 0.0 mm CLR
21:05 16.2 °C 4.3 °C 1021.7 hPa WSW 9.7 km/h 11.3 km/h 45% 0.0 mm CLR
21:10 15.7 °C 3.8 °C 1021.7 hPa SSW 4.8 km/h 11.3 km/h 45% 0.0 mm CLR
21:15 15.2 °C 3.9 °C 1021.7 hPa South 5.8 km/h 10.0 km/h 47% 0.0 mm CLR
21:20 14.9 °C 3.7 °C 1021.8 hPa SSW 4.8 km/h 9.7 km/h 47% 0.0 mm CLR
21:25 14.8 °C 3.9 °C 1021.8 hPa SW 4.8 km/h 6.4 km/h 48% 0.0 mm CLR
21:29 14.7 °C 3.8 °C 1021.8 hPa Calm   7.4 km/h 48% 0.0 mm CLR
21:35 14.7 °C 3.8 °C 1021.8 hPa Calm   9.7 km/h 48% 0.0 mm CLR
21:40 14.7 °C 3.8 °C 1021.8 hPa SSE 5.0 km/h 3.9 km/h 48% 0.0 mm CLR
21:45 14.7 °C 3.8 °C 1021.8 hPa SSE 5.0 km/h 7.4 km/h 48% 0.0 mm CLR
21:50 14.6 °C 4.0 °C 1021.8 hPa SSW 3.2 km/h 8.0 km/h 49% 0.0 mm CLR
21:55 14.7 °C 4.4 °C 1021.8 hPa WSW 3.2 km/h 16.1 km/h 50% 0.0 mm CLR
21:59 14.9 °C 4.3 °C 1021.8 hPa NNW 6.4 km/h 5.6 km/h 49% 0.0 mm CLR
22:05 14.9 °C 4.0 °C 1021.9 hPa East 6.4 km/h 7.4 km/h 48% 0.0 mm CLR
22:09 14.6 °C 4.0 °C 1021.9 hPa ESE 4.7 km/h 9.3 km/h 49% 0.0 mm CLR
22:15 14.3 °C 3.7 °C 1021.9 hPa SE 3.2 km/h 9.7 km/h 49% 0.0 mm CLR
22:20 14.2 °C 3.9 °C 1022.0 hPa SSE 4.8 km/h 8.0 km/h 50% 0.0 mm CLR
22:25 14.3 °C 4.0 °C 1022.0 hPa South 4.8 km/h 9.7 km/h 50% 0.0 mm CLR
22:30 14.3 °C 3.7 °C 1022.0 hPa South 8.0 km/h 9.7 km/h 49% 0.0 mm CLR
22:35 14.3 °C 4.0 °C 1022.0 hPa SSE 6.4 km/h 5.8 km/h 50% 0.0 mm CLR
22:40 14.3 °C 4.0 °C 1022.0 hPa SSE 4.8 km/h 8.0 km/h 50% 0.0 mm CLR
22:45 14.2 °C 3.9 °C 1022.0 hPa SE 5.0 km/h 3.7 km/h 50% 0.0 mm CLR
22:49 14.1 °C 3.8 °C 1022.1 hPa SE 4.7 km/h   50% 0.0 mm CLR
22:55 14.0 °C 4.0 °C 1022.1 hPa SE 4.7 km/h 5.6 km/h 51% 0.0 mm CLR
23:00 13.9 °C 3.9 °C 1022.1 hPa SE 1.6 km/h 6.4 km/h 51% 0.0 mm CLR
23:04 13.9 °C 3.9 °C 1022.0 hPa SE 2.3 km/h   51% 0.0 mm CLR
23:10 13.8 °C 4.1 °C 1022.0 hPa SE 1.6 km/h   52% 0.0 mm CLR
23:14 13.6 °C 3.9 °C 1022.0 hPa SE 2.3 km/h 5.6 km/h 52% 0.0 mm CLR
23:19 13.5 °C 3.8 °C 1022.1 hPa SE 2.3 km/h 4.7 km/h 52% 0.0 mm CLR
23:25 13.4 °C 4.0 °C 1022.1 hPa SE 1.6 km/h 6.4 km/h 53% 0.0 mm CLR
23:29 13.4 °C 4.0 °C 1022.1 hPa SE 3.2 km/h 5.6 km/h 53% 0.0 mm CLR
23:35 13.4 °C 4.1 °C 1022.1 hPa South 3.2 km/h 12.9 km/h 53% 0.0 mm CLR
23:39 13.6 °C 4.2 °C 1022.1 hPa West 6.9 km/h 13.0 km/h 53% 0.0 mm CLR
23:44 13.6 °C 4.2 °C 1022.1 hPa SSW 6.9 km/h 8.4 km/h 53% 0.0 mm CLR
23:49 13.5 °C 4.1 °C 1022.4 hPa WSW 6.4 km/h 9.3 km/h 53% 0.0 mm CLR
23:55 13.5 °C 4.1 °C 1022.4 hPa SSW 6.4 km/h 7.4 km/h 53% 0.0 mm CLR
Murcia-Puente Tocinos, España
Compliments of Weather Underground - 2.75 mb

La estación de MeteoMurcia.com, publica sus datos en los siguientes proyectos:

Weather Underground PWS IMURCIAP2 Meteoclimatic www.awekas.at

W3Counter
Web Analytics